Year,Month,Day,Hour,Minute,Value (Times are PST for temperature in C)
2017,06,08,03,09,15.50
2017,06,08,03,10,15.50
2017,06,08,03,11,15.40
2017,06,08,03,12,15.40
2017,06,08,03,13,15.40
2017,06,08,03,14,15.40
2017,06,08,03,15,15.40
2017,06,08,03,16,15.40
2017,06,08,03,17,15.40
2017,06,08,03,18,15.40
2017,06,08,03,19,15.40
2017,06,08,03,20,15.40
2017,06,08,03,21,15.40
2017,06,08,03,22,15.40
2017,06,08,03,23,15.40
2017,06,08,03,24,15.40
2017,06,08,03,25,15.40
2017,06,08,03,26,15.40
2017,06,08,03,27,15.30
2017,06,08,03,28,15.30
2017,06,08,03,29,15.30
2017,06,08,03,30,15.30
2017,06,08,03,31,15.30
2017,06,08,03,32,15.30
2017,06,08,03,33,15.30
2017,06,08,03,34,15.30
2017,06,08,03,35,15.30
2017,06,08,03,36,15.20
2017,06,08,03,37,15.20
2017,06,08,03,38,15.20
2017,06,08,03,39,15.20
2017,06,08,03,40,15.20
2017,06,08,03,41,15.10
2017,06,08,03,42,15.10
2017,06,08,03,43,15.10
2017,06,08,03,44,15.10
2017,06,08,03,45,15.10
2017,06,08,03,46,15.00
2017,06,08,03,47,15.00
2017,06,08,03,48,15.00
2017,06,08,03,49,14.90
2017,06,08,03,50,14.90
2017,06,08,03,51,14.90
2017,06,08,03,52,14.90
2017,06,08,03,53,14.90
2017,06,08,03,54,14.90
2017,06,08,03,55,14.90
2017,06,08,03,56,14.90
2017,06,08,03,57,14.90
2017,06,08,03,58,14.80
2017,06,08,03,59,14.80
2017,06,08,04,00,14.80
2017,06,08,04,01,14.80
2017,06,08,04,02,14.80
2017,06,08,04,03,14.80
2017,06,08,04,04,14.80
2017,06,08,04,05,14.80
2017,06,08,04,06,14.80
2017,06,08,04,07,14.80
2017,06,08,10,05,13.70
2017,06,08,10,06,13.70
2017,06,08,10,07,13.70
2017,06,08,10,08,13.70
2017,06,08,10,09,13.80
2017,06,08,10,10,13.80
2017,06,08,10,11,13.80
2017,06,08,10,12,13.90
2017,06,08,10,13,13.90
2017,06,08,10,14,13.90
2017,06,08,10,15,13.90
2017,06,08,10,16,13.90
2017,06,08,10,17,13.90
2017,06,08,10,18,13.90
2017,06,08,10,19,13.90
2017,06,08,10,20,13.90
2017,06,08,10,21,13.90
2017,06,08,10,22,13.90
2017,06,08,10,23,13.90
2017,06,08,10,24,13.90
2017,06,08,10,25,13.80
2017,06,08,10,26,13.80
2017,06,08,10,27,13.80
2017,06,08,10,28,13.80
2017,06,08,10,29,13.80
2017,06,08,10,30,13.80
2017,06,08,10,31,13.80
2017,06,08,10,32,13.80
2017,06,08,10,33,13.80
2017,06,08,10,34,13.80
2017,06,08,10,35,13.80
